TimeMDT,TemperatureF,Dew PointF,Humidity,Sea Level PressureIn,VisibilityMPH,Wind Direction,Wind SpeedMPH,Gust SpeedMPH,PrecipitationIn,Events,Conditions,WindDirDegrees,DateUTC
12:53 AM,46.0,33.1,61,29.73,10.0,NNE,4.6,-,0.00,,Overcast,30,2013-03-17 06:53:00
1:53 AM,45.0,33.1,63,29.71,10.0,NW,4.6,-,0.00,,Overcast,310,2013-03-17 07:53:00
2:53 AM,44.1,32.0,63,29.71,10.0,Calm,Calm,-,N/A,,Overcast,0,2013-03-17 08:53:00
3:53 AM,39.0,28.9,67,29.72,10.0,NNE,6.9,-,N/A,,Clear,20,2013-03-17 09:53:00
4:53 AM,37.0,30.0,76,29.73,10.0,North,3.5,-,N/A,,Clear,10,2013-03-17 10:53:00
5:53 AM,32.0,28.0,85,29.75,10.0,NNW,3.5,-,N/A,,Clear,330,2013-03-17 11:53:00
6:53 AM,30.0,27.0,88,29.77,10.0,North,6.9,-,N/A,,Clear,360,2013-03-17 12:53:00
7:53 AM,32.0,28.0,85,29.76,10.0,Calm,Calm,-,N/A,,Clear,0,2013-03-17 13:53:00
8:53 AM,44.1,32.0,63,29.74,10.0,SSE,4.6,-,N/A,,Clear,150,2013-03-17 14:53:00
9:53 AM,48.0,32.0,54,29.72,10.0,SW,8.1,-,N/A,,Clear,220,2013-03-17 15:53:00
10:53 AM,52.0,30.0,43,29.70,10.0,WSW,16.1,24.2,N/A,,Clear,250,2013-03-17 16:53:00
11:53 AM,52.0,28.0,40,29.72,10.0,West,21.9,27.6,N/A,,Mostly Cloudy,260,2013-03-17 17:53:00
12:53 PM,51.1,30.0,44,29.72,10.0,WNW,16.1,29.9,0.00,,Partly Cloudy,290,2013-03-17 18:53:00
1:53 PM,57.0,28.9,34,29.64,10.0,West,16.1,26.5,N/A,,Clear,270,2013-03-17 19:53:00
2:53 PM,61.0,24.1,24,29.58,10.0,West,13.8,26.5,N/A,,Scattered Clouds,280,2013-03-17 20:53:00
3:53 PM,63.0,14.0,15,29.57,10.0,West,17.3,26.5,N/A,,Clear,280,2013-03-17 21:53:00
4:53 PM,64.0,3.0,9,29.55,10.0,West,20.7,36.8,N/A,,Partly Cloudy,280,2013-03-17 22:53:00
5:53 PM,62.1,-2.9,7,29.57,10.0,West,28.8,43.7,N/A,,Clear,270,2013-03-17 23:53:00
6:53 PM,59.0,-4.0,8,29.61,10.0,WNW,23.0,38.0,N/A,,Clear,290,2013-03-18 00:53:00
7:53 PM,55.0,-2.9,9,29.65,10.0,NW,12.7,-,N/A,,Clear,310,2013-03-18 01:53:00
8:53 PM,52.0,-2.0,11,29.65,10.0,WNW,15.0,-,N/A,,Clear,300,2013-03-18 02:53:00
9:53 PM,48.0,3.9,16,29.67,10.0,WNW,9.2,-,N/A,,Clear,290,2013-03-18 03:53:00
10:53 PM,46.0,5.0,19,29.70,10.0,NNW,5.8,-,N/A,,Clear,340,2013-03-18 04:53:00
11:53 PM,48.9,5.0,17,29.69,10.0,NW,15.0,-,N/A,,Clear,310,2013-03-18 05:53:00